Radiation Dose at Monitoring Post of Fukushima Daini Nuclear Power Station
Date,Time,MP-1(microSv/h),MP-2(microSv/h),MP-3(microSv/h),MP-4(microSv/h),MP-5(microSv/h),MP-6(microSv/h),MP-7(microSv/h),Wind Direction,Wind Velocity(m/s),Rain
2019/11/15,00:00,0.189,0.165,0.280,0.265,0.264,0.144,0.088,north,5.1,No
2019/11/15,00:10,0.189,0.166,0.281,0.262,0.264,0.144,0.088,north,4.2,No
2019/11/15,00:20,0.189,0.165,0.281,0.262,0.262,0.144,0.089,north,4.5,No
2019/11/15,00:30,0.188,0.165,0.281,0.263,0.263,0.145,0.088,north-northwest,3.8,No
2019/11/15,00:40,0.189,0.165,0.279,0.263,0.263,0.144,0.089,north,3.7,No
2019/11/15,00:50,0.189,0.166,0.280,0.262,0.263,0.144,0.087,north-northwest,4.1,No
2019/11/15,01:00,0.188,0.165,0.281,0.263,0.262,0.145,0.088,north,4.7,No
2019/11/15,01:10,0.189,0.165,0.280,0.263,0.263,0.144,0.088,north-northwest,4.1,No
2019/11/15,01:20,0.189,0.166,0.280,0.263,0.263,0.144,0.088,north-northwest,3.3,No
2019/11/15,01:30,0.189,0.166,0.281,0.263,0.263,0.144,0.088,north-northwest,3.1,No
2019/11/15,01:40,0.189,0.165,0.280,0.263,0.262,0.144,0.089,north-northwest,2.7,No
2019/11/15,01:50,0.189,0.165,0.280,0.265,0.263,0.144,0.089,north-northwest,1.5,No
2019/11/15,02:00,0.188,0.166,0.280,0.261,0.264,0.144,0.089,northwest,2.0,No
2019/11/15,02:10,0.189,0.165,0.280,0.263,0.262,0.144,0.089,west-northwest,2.2,No
2019/11/15,02:20,0.189,0.165,0.281,0.264,0.263,0.144,0.089,west-northwest,1.8,No
2019/11/15,02:30,0.189,0.165,0.281,0.263,0.263,0.145,0.088,northwest,1.1,No
2019/11/15,02:40,0.188,0.165,0.280,0.262,0.264,0.144,0.088,northwest,1.6,No
2019/11/15,02:50,0.189,0.165,0.281,0.264,0.262,0.144,0.088,north-northwest,1.0,No
2019/11/15,03:00,0.189,0.165,0.281,0.264,0.263,0.144,0.089,northwest,0.9,No
2019/11/15,03:10,0.189,0.165,0.280,0.263,0.263,0.144,0.088,northwest,1.9,No
2019/11/15,03:20,0.188,0.166,0.280,0.262,0.262,0.143,0.088,west-northwest,2.2,No
2019/11/15,03:30,0.190,0.165,0.280,0.263,0.263,0.144,0.088,west-northwest,3.4,No
2019/11/15,03:40,0.189,0.166,0.281,0.262,0.263,0.144,0.089,northwest,4.7,No
2019/11/15,03:50,0.189,0.166,0.279,0.263,0.263,0.144,0.089,northwest,4.7,No
2019/11/15,04:00,0.188,0.165,0.282,0.264,0.262,0.145,0.088,northwest,3.8,No
2019/11/15,04:10,0.189,0.165,0.280,0.264,0.264,0.143,0.089,west-northwest,3.1,No
2019/11/15,04:20,0.189,0.165,0.280,0.263,0.263,0.144,0.088,west-northwest,3.2,No
2019/11/15,04:30,0.187,0.166,0.281,0.262,0.264,0.145,0.089,northwest,4.0,No
2019/11/15,04:40,0.189,0.165,0.282,0.264,0.264,0.144,0.088,northwest,4.4,No
2019/11/15,04:50,0.189,0.164,0.282,0.265,0.263,0.144,0.089,northwest,4.2,No
2019/11/15,05:00,0.188,0.165,0.280,0.263,0.264,0.144,0.088,west-northwest,4.4,No
2019/11/15,05:10,0.188,0.166,0.280,0.263,0.263,0.144,0.088,west-northwest,4.2,No
2019/11/15,05:20,0.190,0.167,0.281,0.263,0.262,0.143,0.088,west-northwest,4.8,No
2019/11/15,05:30,0.188,0.165,0.281,0.263,0.263,0.144,0.089,west-northwest,4.7,No
2019/11/15,05:40,0.187,0.164,0.280,0.264,0.264,0.143,0.088,northwest,4.0,No
2019/11/15,05:50,0.188,0.167,0.279,0.263,0.263,0.144,0.088,northwest,3.2,No
2019/11/15,06:00,0.189,0.166,0.281,0.262,0.262,0.143,0.087,northwest,3.2,No
2019/11/15,06:10,0.189,0.165,0.281,0.263,0.263,0.144,0.088,northwest,3.6,No
2019/11/15,06:20,0.188,0.166,0.281,0.262,0.262,0.144,0.088,west-northwest,4.3,No
2019/11/15,06:30,0.189,0.166,0.281,0.262,0.263,0.143,0.088,west,4.0,No
2019/11/15,06:40,0.188,0.165,0.280,0.263,0.263,0.143,0.088,west-northwest,3.3,No
2019/11/15,06:50,0.188,0.165,0.281,0.263,0.263,0.144,0.088,west-northwest,4.2,No
2019/11/15,07:00,0.188,0.165,0.280,0.263,0.263,0.144,0.088,west-northwest,5.2,No
2019/11/15,07:10,0.189,0.165,0.279,0.261,0.263,0.144,0.088,northwest,6.3,No
2019/11/15,07:20,0.188,0.165,0.279,0.261,0.263,0.145,0.088,northwest,6.9,No
2019/11/15,07:30,0.188,0.165,0.282,0.264,0.262,0.144,0.088,west-northwest,1.7,No
2019/11/15,07:40,0.187,0.165,0.279,0.262,0.263,0.144,0.089,south,1.6,No
2019/11/15,07:50,0.189,0.166,0.281,0.262,0.262,0.144,0.087,southeast,2.1,No
2019/11/15,08:00,0.188,0.165,0.281,0.263,0.264,0.144,0.088,south-southeast,1.2,No
2019/11/15,08:10,0.189,0.164,0.280,0.261,0.264,0.144,0.088,southeast,2.2,No
2019/11/15,08:20,0.189,0.165,0.279,0.263,0.262,0.144,0.089,southeast,2.0,No
2019/11/15,08:30,0.188,0.165,0.279,0.262,0.263,0.145,0.089,southeast,2.1,No
2019/11/15,08:40,0.188,0.166,0.281,0.262,0.264,0.145,0.089,southeast,2.3,No
2019/11/15,08:50,0.189,0.166,0.280,0.263,0.263,0.143,0.088,east-southeast,2.1,No
2019/11/15,09:00,0.188,0.165,0.280,0.261,0.263,0.142,0.088,southeast,1.9,No
2019/11/15,09:10,0.189,0.165,0.282,0.263,0.262,0.143,0.089,east-southeast,2.5,No
2019/11/15,09:20,0.189,0.165,0.280,0.262,0.262,0.144,0.088,southeast,2.2,No
2019/11/15,09:30,0.188,0.165,0.280,0.263,0.264,0.144,0.088,south-southeast,2.3,No
2019/11/15,09:40,0.188,0.164,0.281,0.261,0.261,0.144,0.088,south-southeast,2.9,No
2019/11/15,09:50,0.188,0.164,0.279,0.263,0.263,0.144,0.088,south-southeast,3.0,No
2019/11/15,10:00,0.187,0.165,0.279,0.262,0.261,0.144,0.088,southeast,3.5,No
2019/11/15,10:10,0.187,0.164,0.281,0.263,0.263,0.143,0.088,southeast,3.7,No
2019/11/15,10:20,0.189,0.164,0.280,0.261,0.261,0.144,0.088,south-southeast,4.7,No
2019/11/15,10:30,0.186,0.164,0.280,0.263,0.263,0.144,0.088,southeast,4.4,No
2019/11/15,10:40,0.188,0.166,0.280,0.262,0.261,0.143,0.088,south-southeast,5.6,No
2019/11/15,10:50,0.188,0.164,0.279,0.262,0.262,0.144,0.088,south-southeast,6.0,No
2019/11/15,11:00,0.186,0.164,0.281,0.262,0.261,0.143,0.089,southeast,6.2,No
2019/11/15,11:10,0.189,0.164,0.279,0.263,0.262,0.145,0.088,southeast,5.1,No
2019/11/15,11:20,0.187,0.166,0.280,0.261,0.264,0.144,0.089,south-southeast,6.2,No
2019/11/15,11:30,0.188,0.165,0.280,0.261,0.262,0.144,0.089,south-southeast,5.9,No
2019/11/15,11:40,0.188,0.165,0.279,0.264,0.264,0.145,0.088,southeast,6.6,No
2019/11/15,11:50,0.186,0.164,0.281,0.261,0.261,0.144,0.088,south-southeast,6.0,No
2019/11/15,12:00,0.188,0.164,0.280,0.263,0.265,0.145,0.089,south-southeast,7.4,No
2019/11/15,12:10,0.189,0.165,0.279,0.262,0.263,0.144,0.088,south-southeast,7.4,No
2019/11/15,12:20,0.187,0.165,0.280,0.263,0.263,0.143,0.088,south-southeast,8.4,No
2019/11/15,12:30,0.188,0.164,0.278,0.262,0.263,0.144,0.088,south-southeast,7.7,No
2019/11/15,12:40,0.187,0.164,0.281,0.264,0.261,0.144,0.088,south-southeast,9.0,No
2019/11/15,12:50,0.188,0.166,0.281,0.262,0.264,0.144,0.088,south-southeast,9.3,No
2019/11/15,13:00,0.189,0.164,0.280,0.264,0.264,0.143,0.089,south-southeast,8.2,No
2019/11/15,13:10,0.186,0.166,0.281,0.262,0.263,0.143,0.088,south-southeast,7.5,No
2019/11/15,13:20,0.189,0.166,0.279,0.264,0.262,0.144,0.088,south-southeast,8.1,No
2019/11/15,13:30,0.188,0.165,0.281,0.261,0.264,0.145,0.088,south-southeast,8.2,No
2019/11/15,13:40,0.189,0.165,0.279,0.264,0.264,0.144,0.088,south-southeast,8.6,No
2019/11/15,13:50,0.188,0.165,0.281,0.261,0.264,0.144,0.088,south-southeast,8.1,No
2019/11/15,14:00,0.189,0.165,0.279,0.264,0.263,0.144,0.088,south-southeast,10.1,No
2019/11/15,14:10,0.188,0.165,0.281,0.264,0.264,0.144,0.088,south-southeast,8.6,No
2019/11/15,14:20,0.189,0.165,0.281,0.263,0.264,0.143,0.088,south-southeast,9.2,No
2019/11/15,14:30,0.189,0.165,0.279,0.263,0.264,0.144,0.088,south,8.1,No
2019/11/15,14:40,0.189,0.163,0.281,0.263,0.264,0.144,0.088,south,9.3,No
2019/11/15,14:50,0.188,0.166,0.280,0.265,0.264,0.144,0.088,south,8.4,No
2019/11/15,15:00,0.188,0.166,0.281,0.262,0.263,0.143,0.089,south-southeast,7.3,No
2019/11/15,15:10,0.189,0.166,0.279,0.263,0.262,0.145,0.089,south,7.1,No
2019/11/15,15:20,0.189,0.165,0.280,0.263,0.264,0.144,0.089,south,7.4,No
2019/11/15,15:30,0.189,0.166,0.281,0.264,0.265,0.144,0.088,south,4.7,No
2019/11/15,15:40,0.188,0.165,0.280,0.262,0.262,0.145,0.088,south,5.1,No
2019/11/15,15:50,0.189,0.164,0.280,0.263,0.265,0.144,0.088,south,5.5,No
2019/11/15,16:00,0.187,0.165,0.280,0.264,0.262,0.143,0.088,south,5.1,No
2019/11/15,16:10,0.190,0.166,0.281,0.263,0.264,0.145,0.088,south,5.3,No
2019/11/15,16:20,0.188,0.165,0.280,0.262,0.264,0.144,0.088,south,5.4,No
2019/11/15,16:30,0.188,0.165,0.279,0.264,0.264,0.145,0.088,south,5.4,No
2019/11/15,16:40,0.189,0.166,0.281,0.262,0.265,0.144,0.088,south,4.6,No
2019/11/15,16:50,0.188,0.165,0.280,0.264,0.264,0.144,0.088,south-southwest,5.6,No
2019/11/15,17:00,0.188,0.167,0.279,0.264,0.263,0.144,0.089,south-southwest,4.8,No
2019/11/15,17:10,0.189,0.166,0.280,0.262,0.264,0.144,0.088,south-southwest,4.4,No
2019/11/15,17:20,0.189,0.166,0.280,0.263,0.265,0.145,0.088,south-southwest,5.5,No
2019/11/15,17:30,0.189,0.166,0.281,0.263,0.264,0.145,0.088,south-southwest,4.9,No
2019/11/15,17:40,0.188,0.165,0.283,0.264,0.264,0.144,0.088,south-southwest,5.9,No
2019/11/15,17:50,0.188,0.165,0.282,0.264,0.262,0.145,0.089,southwest,5.2,No
2019/11/15,18:00,0.189,0.166,0.280,0.264,0.264,0.144,0.089,south-southwest,5.5,No
2019/11/15,18:10,0.187,0.166,0.281,0.263,0.264,0.144,0.089,south,3.9,No
2019/11/15,18:20,0.188,0.166,0.282,0.265,0.264,0.145,0.089,south-southwest,3.5,No
2019/11/15,18:30,0.189,0.166,0.279,0.264,0.264,0.145,0.089,southwest,3.6,No
2019/11/15,18:40,0.189,0.165,0.281,0.265,0.264,0.145,0.089,south-southwest,5.1,No
2019/11/15,18:50,0.188,0.166,0.281,0.264,0.264,0.144,0.088,southwest,6.1,No
2019/11/15,19:00,0.189,0.166,0.280,0.263,0.264,0.145,0.090,southwest,6.4,No
2019/11/15,19:10,0.188,0.165,0.281,0.262,0.263,0.144,0.088,southwest,5.7,No
2019/11/15,19:20,0.189,0.167,0.282,0.264,0.263,0.145,0.089,southwest,6.3,No
2019/11/15,19:30,0.189,0.166,0.280,0.264,0.263,0.144,0.089,south-southwest,9.2,No
2019/11/15,19:40,0.189,0.166,0.282,0.264,0.264,0.145,0.089,southwest,8.2,No
2019/11/15,19:50,0.189,0.166,0.282,0.264,0.262,0.145,0.088,southwest,9.2,No
2019/11/15,20:00,0.189,0.165,0.281,0.264,0.263,0.145,0.089,southwest,9.5,No
2019/11/15,20:10,0.189,0.166,0.282,0.263,0.264,0.144,0.089,southwest,7.6,No
2019/11/15,20:20,0.189,0.167,0.282,0.264,0.264,0.145,0.089,southwest,6.7,No
2019/11/15,20:30,0.189,0.166,0.281,0.265,0.263,0.144,0.089,southwest,6.9,No
2019/11/15,20:40,0.189,0.166,0.283,0.264,0.264,0.144,0.089,southwest,6.2,No
2019/11/15,20:50,0.189,0.167,0.281,0.264,0.262,0.145,0.089,southwest,5.6,No
2019/11/15,21:00,0.189,0.166,0.280,0.264,0.263,0.145,0.089,southwest,5.0,No
2019/11/15,21:10,0.189,0.165,0.282,0.264,0.264,0.144,0.088,southwest,5.2,No
2019/11/15,21:20,0.189,0.165,0.280,0.264,0.263,0.146,0.089,southwest,5.2,No
2019/11/15,21:30,0.190,0.166,0.281,0.265,0.263,0.145,0.088,southwest,3.9,No
2019/11/15,21:40,0.188,0.166,0.281,0.265,0.264,0.145,0.089,southwest,5.3,No
2019/11/15,21:50,0.188,0.166,0.280,0.263,0.263,0.145,0.089,west-southwest,2.9,No
2019/11/15,22:00,0.189,0.166,0.282,0.264,0.263,0.145,0.088,west-southwest,1.7,No
2019/11/15,22:10,0.188,0.166,0.283,0.264,0.264,0.145,0.090,east-northeast,1.9,No
2019/11/15,22:20,0.188,0.166,0.281,0.263,0.263,0.144,0.089,-,CALM,No
2019/11/15,22:30,0.189,0.165,0.280,0.263,0.263,0.145,0.089,south,1.3,No
2019/11/15,22:40,0.190,0.166,0.281,0.264,0.264,0.144,0.088,south-southwest,2.6,No
2019/11/15,22:50,0.189,0.165,0.282,0.264,0.262,0.144,0.089,south-southwest,3.8,No
2019/11/15,23:00,0.189,0.165,0.279,0.263,0.262,0.145,0.089,southwest,2.4,No
2019/11/15,23:10,0.189,0.165,0.280,0.262,0.265,0.145,0.089,west,2.3,No
2019/11/15,23:20,0.189,0.165,0.281,0.264,0.263,0.144,0.089,west-northwest,1.6,No
2019/11/15,23:30,0.189,0.165,0.281,0.263,0.263,0.144,0.089,west-northwest,0.9,No
2019/11/15,23:40,0.190,0.166,0.280,0.263,0.265,0.144,0.088,west,1.3,No
2019/11/15,23:50,0.188,0.166,0.281,0.265,0.263,0.144,0.089,west-northwest,0.8,No
